Temp_Advection
nan nan nan nan nan nan nan nan nan nan nan nan nan nan nan nan nan nan nan nan nan nan nan nan nan nan nan nan nan nan nan nan nan nan nan nan nan nan nan nan nan nan nan
nan 0 0 0 -0 -0 -0 0 0 0 0 0 0 0 0 0 0 0 0 -0 -0 -1 -0 -0 0 0 0 0 -0 -0 0 0 -0 -0 0 0 -0 -0 -0 -0 -0 -0 nan
nan 0 0 0 0 -0 -0 0 0 0 0 0 0 0 0 0 0 0 0 -0 -1 -1 -0 0 0 0 0 0 -0 -0 -0 0 -0 -0 -0 0 0 -0 -0 -0 -0 -0 nan
nan -0 0 0 0 0 0 -0 0 0 0 -0 0 -0 -0 -0 -0 0 0 0 -0 -1 -1 -0 0 0 0 0 -0 -0 -0 -0 0 0 -0 -0 -0 -0 -0 0 0 0 nan
nan 0 -0 0 0 0 -0 -0 -0 0 0 0 0 0 -0 -0 -0 0 0 0 -0 -1 -1 -0 0 0 0 0 0 0 -0 -0 -0 0 0 0 -0 -0 -0 0 0 0 nan
nan 0 -0 0 0 0 0 -0 -1 0 0 0 0 0 0 0 -0 0 0 -0 -0 -1 -0 0 0 -0 -0 0 0 0 -0 -0 0 -0 -0 -0 -0 -0 0 0 -0 -0 nan
nan 0 0 0 0 0 0 -0 -1 -0 0 0 0 -0 0 -0 -0 -0 -0 -0 -0 -0 -0 -0 0 -0 0 0 0 -0 -0 -0 -0 -0 -0 -0 -0 -0 -0 -0 -0 -0 nan
nan 0 1 1 0 0 0 -0 -0 -1 -0 -0 -0 -0 -0 -0 0 -0 -0 -0 -0 -0 -0 -0 -0 -0 0 0 0 -0 -0 -0 -0 -0 -0 -0 -0 -0 -0 -0 -0 -0 nan
nan -0 0 1 1 0 1 0 0 -1 -1 -1 -1 -0 -0 -0 0 0 0 -0 -0 -0 0 -0 -0 -0 -0 0 0 0 -0 -0 -0 -0 -0 -0 -0 -0 -0 -0 -0 -0 nan
nan 0 -0 0 1 0 1 1 0 0 -0 -1 -1 -0 -0 -0 -0 -0 -0 -0 0 0 0 0 0 0 -0 -0 -0 -0 0 -0 -0 -0 -0 -0 -0 -0 -0 -0 -0 -0 nan
nan 0 0 -0 0 1 0 1 1 1 0 0 -0 -0 0 -0 -0 -0 -0 -0 -0 0 0 0 0 0 0 0 -0 -0 -0 -0 -0 -0 -0 -0 -0 -0 -0 -0 -0 -0 nan
nan -0 -0 -0 0 0 0 0 1 1 1 0 0 0 0 -0 0 -0 -0 0 -0 -0 -0 -0 -0 -0 -0 0 0 -0 -0 -0 -0 -0 -0 -0 -0 -0 -0 -0 -0 -0 nan
nan -0 -0 -0 -0 0 0 0 0 1 1 1 0 0 0 -0 -0 0 -0 -0 0 -0 0 -0 0 0 0 0 0 -0 -0 -0 -0 -0 -0 -0 -0 -0 -0 -0 -0 -0 nan
nan -1 0 0 -0 -0 -0 -0 -0 0 1 1 1 0 0 0 0 0 0 -0 -0 -0 -0 -0 -0 0 0 0 0 0 -0 -0 -0 -0 -0 -0 -0 -0 -0 -0 -0 -0 nan
nan -1 -0 -0 -0 -0 0 0 0 -0 0 1 1 1 1 0 0 0 0 0 -0 -0 0 0 0 0 0 0 0 0 -0 0 0 0 -0 -0 -0 -0 -0 -0 -0 -0 nan
nan -2 -0 -0 -0 -0 0 0 0 -0 0 0 0 1 0 0 0 0 0 0 0 0 0 0 0 0 0 0 0 0 0 0 0 0 0 0 -0 -0 -0 -0 -0 -0 nan
nan 1 -1 -0 -0 -0 -0 -0 -0 -0 -0 -0 -0 -0 0 0 0 0 0 0 0 0 0 0 0 0 0 0 0 0 0 0 -0 -0 0 0 0 0 -0 -0 -0 -0 nan
nan 3 0 -1 -0 -0 0 -0 -0 -0 -0 -0 -0 -0 -0 -0 0 0 -0 0 0 0 0 0 0 0 0 0 0 0 0 0 0 0 0 0 0 0 0 0 -0 -0 nan
nan 1 0 -1 0 0 0 0 -0 0 0 -0 -0 -0 0 0 0 0 0 0 0 0 0 0 0 0 0 0 0 0 -0 0 0 0 0 0 0 0 0 0 0 -0 nan
nan -0 -1 1 -0 1 0 1 0 0 0 0 0 0 0 0 0 0 0 0 0 0 -0 0 0 0 0 0 -0 -0 -0 0 0 0 0 0 0 0 0 0 -0 0 nan
nan 0 1 1 1 0 -0 -0 -0 -0 0 0 0 0 0 0 0 0 0 0 0 0 0 0 0 0 0 0 -0 -0 0 0 -0 0 0 0 0 0 0 -0 -0 0 nan
nan 1 1 2 1 -0 -0 -0 -0 -0 -0 0 -0 -0 -0 -0 0 0 0 0 0 0 0 0 0 0 0 0 0 -0 -0 -0 -0 -0 0 0 0 0 0 -0 -0 0 nan
nan -0 -0 -0 1 0 0 0 0 1 -0 -0 -1 -0 -0 -0 0 0 0 0 0 0 0 0 0 0 0 0 0 -0 -0 -0 -0 -0 -0 0 0 0 0 -0 0 0 nan
nan 0 0 1 1 1 1 1 0 0 -0 0 0 0 -0 0 0 0 0 0 -0 0 1 0 0 -0 -0 1 0 0 0 0 -0 -0 -0 0 0 0 -0 -0 0 0 nan
nan 0 0 1 0 -0 0 -0 0 0 0 1 0 -0 -0 0 0 1 1 0 -0 -0 0 0 0 0 0 -0 -0 1 1 0 -0 0 -0 -0 0 0 -0 -0 0 -0 nan
nan nan nan nan nan nan nan nan nan nan nan nan nan nan nan nan nan nan nan nan nan nan nan nan nan nan nan nan nan nan nan nan nan nan nan nan nan nan nan nan nan nan nan
Wind_Speed
35 31 28 26 23 21 19 17 16 16 16 19 20 20 19 16 15 17 14 15 12 15 21 17 20 17 20 20 22 23 23 21 21 23 21 20 20 20 20 19 18 17 16
38 33 29 26 23 20 17 17 16 15 18 21 22 21 20 18 18 16 14 13 11 19 20 22 20 18 18 21 21 22 21 22 22 23 22 20 18 18 17 17 16 15 17
39 34 31 26 23 20 18 18 19 20 18 22 23 21 21 20 20 17 13 11 13 20 22 20 19 18 17 18 19 20 21 20 19 19 19 21 19 19 18 17 15 12 11
39 35 31 28 23 20 19 20 23 23 22 23 23 24 24 22 20 14 11 13 17 22 22 21 19 18 17 17 18 18 17 16 15 15 16 17 15 16 14 13 10 9 10
38 35 31 27 23 21 20 23 26 24 25 25 26 26 23 22 16 12 14 18 22 23 23 20 20 19 18 18 18 18 17 16 14 13 13 16 16 15 13 10 11 13 15
38 35 31 27 24 21 21 24 29 26 26 26 24 22 22 18 14 15 19 22 24 24 21 21 20 20 19 19 19 18 18 17 16 15 16 16 17 17 16 15 16 15 16
39 36 31 27 24 22 22 24 29 29 29 25 23 22 19 15 16 20 23 24 25 23 21 20 20 19 18 18 18 17 16 16 15 15 16 16 17 16 16 16 16 16 16
40 36 31 26 24 21 21 23 27 30 29 25 23 20 17 17 22 24 25 25 24 22 20 20 19 18 17 17 16 16 15 14 14 15 15 15 16 16 16 15 15 15 15
38 36 30 26 24 22 22 23 24 27 28 25 22 19 20 24 25 26 26 25 23 21 19 18 17 16 15 14 13 14 13 13 12 14 14 14 15 15 15 15 15 15 15
36 34 30 26 25 24 24 24 24 24 24 24 22 24 26 27 27 26 26 25 23 21 18 15 15 14 13 12 11 11 11 11 11 12 13 13 14 14 14 14 15 14 14
35 33 29 27 26 26 26 24 23 22 23 24 25 27 28 26 26 26 25 23 22 20 17 13 11 11 10 10 9 8 9 9 10 11 11 12 12 12 12 13 13 13 13
39 35 30 28 27 25 27 25 23 23 24 26 27 28 28 27 26 25 23 22 20 19 16 14 11 9 8 6 6 6 6 7 8 9 10 10 10 10 10 11 11 12 12
38 35 30 27 27 27 27 28 24 24 24 25 27 28 28 27 26 25 24 22 21 18 16 13 11 8 6 4 3 4 3 4 5 6 7 8 8 8 8 9 9 10 10
37 34 32 29 28 29 28 29 27 26 25 26 28 28 28 28 27 25 23 21 19 16 14 12 10 8 7 5 3 1 0 1 2 3 4 4 5 6 6 7 7 8 9
42 29 32 32 31 30 28 28 28 26 26 26 27 27 26 26 24 23 21 18 16 14 12 11 10 9 7 6 6 5 3 2 1 1 1 2 2 3 5 5 6 6 7
43 44 35 34 34 31 29 28 27 27 27 26 25 25 23 21 21 20 18 16 14 12 11 10 10 9 8 7 7 7 6 5 5 4 3 3 3 2 3 4 4 5 7
41 36 39 40 35 32 30 27 25 27 28 28 25 23 22 21 19 17 16 14 12 12 12 11 11 9 8 7 6 6 7 7 5 5 5 5 5 4 4 5 4 5 6
47 45 40 42 37 35 31 29 26 27 26 26 25 24 22 21 18 17 16 13 12 11 10 10 10 8 7 7 7 7 7 8 8 8 7 7 6 6 5 5 5 5 7
51 47 48 41 40 37 33 28 26 26 23 23 23 23 21 20 17 16 15 15 13 11 10 9 9 9 8 9 9 10 10 11 10 10 9 9 9 9 7 7 6 6 7
45 47 42 43 38 37 35 32 28 26 26 23 23 21 19 18 16 15 14 15 14 13 12 12 11 10 10 10 11 11 11 10 10 11 11 12 11 10 10 7 7 7 9
38 40 44 45 43 42 39 38 34 31 30 27 24 18 17 15 15 14 13 13 14 14 12 11 11 11 10 11 13 12 10 12 11 13 14 14 14 14 13 11 12 12 12
33 35 34 48 47 45 39 36 33 31 29 25 22 20 17 15 13 12 11 12 13 13 13 13 12 12 11 11 13 12 8 7 9 10 11 14 15 15 16 17 16 14 14
30 31 36 36 43 42 41 39 34 29 28 26 26 25 22 16 11 10 11 11 12 13 14 12 13 12 10 12 14 11 7 5 4 9 13 10 8 9 10 14 15 17 16
35 30 21 29 43 41 38 32 25 22 25 24 19 17 15 18 17 16 18 18 16 20 17 14 14 11 12 25 21 15 19 20 20 14 17 11 10 11 11 12 15 15 13
33 27 24 31 32 29 30 31 32 35 30 24 26 23 21 21 19 23 24 24 22 19 16 10 13 18 17 11 16 23 25 23 22 17 12 14 13 12 13 16 14 18 18
22 24 29 21 29 24 23 29 34 34 30 31 26 26 25 25 23 25 18 17 18 14 15 14 20 22 20 21 19 16 15 16 17 16 18 19 18 18 19 15 18 23 23
Wind_Direction
178 173 170 174 169 168 169 166 168 169 170 170 163 162 156 151 143 141 139 132 123 110 116 117 113 104 97 98 97 94 89 89 87 84 87 89 89 85 81 78 75 71 66
169 173 170 173 172 169 168 163 162 156 152 157 152 154 155 153 147 144 136 127 126 120 121 112 114 107 102 99 98 96 93 89 94 87 83 81 80 82 79 77 76 67 59
170 171 168 172 173 167 161 158 150 137 139 148 149 148 148 149 145 145 136 130 127 124 120 119 115 116 106 102 102 99 94 91 92 91 88 84 79 79 81 81 76 69 63
168 170 169 171 169 162 159 155 144 142 142 145 147 146 149 149 146 141 136 133 130 129 124 120 118 113 107 105 99 97 94 90 86 81 85 94 96 92 90 88 81 65 55
169 168 168 169 166 163 159 157 149 146 147 147 145 147 150 146 145 143 139 135 131 127 124 120 115 114 109 103 98 93 91 88 85 81 76 71 74 73 75 71 62 59 54
169 167 166 168 166 164 161 159 158 153 151 149 150 152 150 151 149 147 140 136 133 130 126 121 117 114 108 102 99 95 90 86 82 78 74 72 69 68 67 63 58 56 55
167 165 167 167 166 163 162 162 164 160 159 158 159 155 155 155 151 144 140 138 136 133 126 122 118 113 108 104 101 97 91 88 82 77 73 70 67 65 63 61 58 57 55
164 164 166 167 165 164 162 160 164 168 169 165 162 162 161 155 148 144 141 140 139 134 128 126 120 117 111 105 100 98 92 86 82 76 70 69 66 64 62 61 59 56 54
165 164 165 164 164 164 160 155 156 164 174 175 173 165 157 150 147 144 142 142 141 138 135 130 125 122 116 112 102 97 92 86 79 76 70 67 64 62 60 59 58 55 52
165 165 165 163 164 163 160 155 153 156 161 162 162 155 151 149 147 147 146 147 148 145 142 137 131 126 121 116 107 96 89 83 78 73 69 65 61 60 59 59 57 54 51
167 169 166 166 166 164 161 157 154 154 155 155 154 152 151 149 149 147 148 149 152 151 149 148 144 138 130 124 116 104 90 80 77 71 67 64 61 59 58 57 56 54 50
167 169 169 171 170 165 162 160 161 157 156 156 154 153 152 150 151 150 151 154 155 157 158 158 161 154 145 135 119 108 92 83 74 68 67 63 59 58 57 55 54 50 46
171 168 169 176 176 172 169 169 172 166 160 160 157 156 156 156 158 158 159 161 162 164 165 164 165 171 171 160 134 113 95 82 77 67 61 60 57 55 53 50 47 44 41
170 172 172 179 182 181 177 177 178 175 168 165 164 164 165 164 165 165 165 166 167 169 170 172 177 181 189 202 213 213 99 98 65 62 50 51 49 48 44 41 38 33 33
179 196 184 182 192 186 186 186 185 182 177 173 171 171 173 171 170 170 170 171 174 178 181 186 191 192 202 218 238 249 252 245 239 314 358 11 16 26 29 26 24 26 26
178 181 194 193 195 190 193 193 193 192 186 184 180 178 175 176 177 178 179 180 182 185 191 196 198 202 209 220 232 243 255 259 265 270 273 291 301 323 357 2 1 7 5
173 184 199 196 196 195 196 199 200 197 194 193 190 185 180 180 182 184 186 189 194 199 206 208 209 215 227 235 234 247 260 264 277 277 259 271 287 299 326 341 334 332 336
186 186 194 198 197 196 198 199 199 192 192 194 193 192 188 187 187 190 194 195 200 204 206 210 217 228 243 257 257 261 263 267 268 264 259 260 266 274 291 309 323 341 348
188 193 195 196 200 197 195 196 198 198 197 195 190 186 188 188 192 200 204 200 205 208 212 217 230 244 259 269 272 274 278 269 268 258 262 266 261 261 268 275 291 306 339
196 196 196 197 199 195 197 195 198 199 200 194 189 189 191 194 200 203 200 200 211 219 224 231 241 257 269 275 283 288 281 275 266 263 262 263 262 261 259 261 283 287 296
204 205 202 198 198 197 199 197 197 198 200 198 197 193 194 197 205 213 217 220 225 231 239 242 249 258 270 277 279 275 279 270 259 259 257 257 260 263 259 250 254 258 266
207 211 208 196 195 197 199 199 199 199 201 206 207 202 201 202 205 211 220 227 234 239 240 244 253 265 269 274 269 282 295 270 255 258 265 263 262 266 265 261 254 256 270
208 210 211 217 200 203 202 197 199 200 201 202 209 214 209 210 220 225 232 242 248 255 246 247 250 258 260 266 269 261 280 274 264 275 279 257 261 276 289 287 275 266 256
206 214 218 223 216 204 206 196 202 215 213 214 225 221 247 237 229 236 236 240 244 253 252 229 234 245 282 287 264 263 272 277 283 278 263 251 266 271 276 291 283 272 259
203 208 204 220 236 217 202 212 208 210 219 217 230 246 244 240 233 240 236 234 240 258 278 265 248 269 276 271 282 284 274 269 269 260 303 287 285 279 289 288 289 275 261
194 206 211 219 234 224 215 208 202 209 213 220 223 225 230 239 243 243 259 271 274 259 258 253 268 279 267 281 286 282 274 266 268 275 279 276 275 285 286 276 287 286 267
Height
1504 1510 1515 1518 1522 1524 1526 1528 1531 1532 1534 1535 1537 1540 1543 1546 1548 1549 1551 1553 1554 1555 1558 1559 1560 1561 1562 1562 1563 1563 1564 1564 1564 1563 1564 1565 1564 1565 1565 1565 1564 1564 1564
1501 1508 1513 1517 1521 1524 1526 1528 1530 1532 1534 1536 1538 1540 1544 1547 1549 1551 1553 1554 1556 1557 1559 1561 1563 1564 1564 1565 1565 1566 1566 1566 1566 1567 1567 1567 1568 1568 1568 1568 1567 1567 1566
1501 1507 1511 1516 1520 1523 1526 1528 1530 1532 1535 1538 1540 1542 1544 1548 1550 1552 1553 1554 1556 1558 1561 1562 1564 1566 1566 1567 1568 1568 1569 1569 1569 1569 1570 1570 1570 1571 1570 1570 1569 1569 1568
1500 1506 1511 1514 1519 1522 1525 1528 1531 1533 1536 1539 1541 1543 1545 1548 1551 1553 1554 1555 1557 1560 1562 1565 1566 1567 1568 1569 1570 1570 1571 1572 1572 1572 1571 1571 1572 1572 1572 1571 1571 1570 1569
1500 1505 1510 1514 1518 1521 1525 1528 1531 1534 1537 1540 1542 1544 1546 1549 1552 1553 1555 1557 1559 1562 1565 1567 1568 1569 1571 1572 1572 1573 1573 1574 1575 1575 1575 1574 1574 1573 1574 1573 1573 1572 1570
1500 1505 1510 1514 1517 1521 1524 1528 1531 1535 1538 1541 1543 1545 1547 1550 1552 1554 1556 1559 1562 1564 1567 1569 1570 1572 1573 1574 1575 1575 1576 1576 1577 1577 1577 1576 1576 1576 1576 1575 1574 1573 1572
1499 1505 1510 1514 1518 1521 1524 1527 1530 1534 1539 1541 1544 1545 1548 1551 1553 1555 1558 1561 1564 1566 1569 1571 1572 1574 1575 1576 1577 1578 1579 1579 1579 1579 1579 1578 1578 1578 1578 1577 1576 1576 1575
1498 1505 1510 1514 1518 1522 1524 1527 1530 1533 1538 1541 1543 1545 1549 1552 1554 1557 1560 1563 1566 1568 1571 1573 1574 1576 1577 1578 1579 1580 1581 1581 1581 1581 1581 1581 1581 1581 1580 1579 1579 1578 1577
1499 1504 1509 1513 1518 1522 1525 1528 1531 1533 1537 1540 1543 1546 1549 1553 1556 1558 1561 1564 1567 1570 1572 1574 1576 1578 1579 1580 1581 1582 1583 1583 1584 1583 1584 1583 1583 1583 1582 1582 1581 1580 1579
1500 1504 1509 1514 1518 1522 1525 1528 1531 1535 1538 1540 1544 1546 1550 1554 1558 1560 1563 1566 1568 1571 1573 1576 1578 1580 1581 1582 1583 1584 1584 1585 1585 1585 1585 1585 1585 1585 1584 1584 1583 1582 1582
1499 1504 1508 1514 1519 1522 1526 1529 1532 1536 1538 1541 1544 1547 1551 1555 1559 1562 1564 1567 1570 1572 1575 1576 1579 1581 1582 1583 1584 1585 1586 1586 1587 1587 1587 1587 1587 1587 1586 1586 1585 1584 1584
1495 1501 1507 1513 1519 1523 1527 1530 1533 1537 1538 1542 1544 1548 1551 1555 1560 1562 1565 1568 1571 1573 1575 1577 1579 1581 1583 1585 1585 1586 1587 1587 1588 1588 1588 1588 1588 1588 1588 1587 1587 1586 1585
1495 1499 1505 1513 1519 1523 1527 1531 1534 1538 1540 1543 1546 1548 1552 1555 1559 1562 1565 1568 1571 1574 1576 1578 1580 1581 1583 1584 1586 1587 1588 1588 1589 1589 1589 1589 1590 1589 1589 1589 1588 1587 1586
1494 1499 1504 1510 1518 1522 1526 1531 1534 1538 1540 1543 1546 1549 1552 1554 1559 1562 1565 1569 1572 1574 1576 1579 1580 1582 1583 1584 1586 1587 1588 1588 1589 1589 1590 1590 1590 1590 1589 1589 1588 1588 1587
1481 1497 1505 1508 1516 1521 1526 1530 1535 1538 1541 1544 1546 1549 1552 1555 1560 1563 1566 1569 1572 1574 1576 1578 1580 1581 1583 1584 1585 1586 1587 1587 1588 1588 1589 1590 1590 1590 1589 1589 1589 1588 1587
1482 1488 1501 1507 1515 1519 1524 1530 1534 1537 1541 1544 1547 1549 1553 1557 1561 1564 1566 1569 1571 1573 1576 1578 1579 1580 1582 1583 1584 1586 1586 1587 1587 1588 1588 1589 1589 1589 1589 1589 1589 1588 1587
1484 1491 1499 1506 1511 1517 1523 1530 1533 1536 1540 1544 1547 1550 1553 1557 1560 1563 1566 1568 1570 1572 1574 1577 1578 1580 1581 1582 1583 1584 1585 1586 1586 1587 1587 1588 1589 1589 1589 1589 1588 1587 1587
1485 1488 1495 1502 1509 1515 1520 1527 1531 1535 1539 1543 1546 1549 1553 1556 1559 1562 1565 1567 1569 1570 1573 1575 1577 1579 1579 1581 1582 1582 1582 1583 1584 1585 1586 1586 1587 1588 1588 1589 1588 1587 1587
1482 1487 1491 1497 1504 1511 1518 1524 1530 1535 1538 1542 1546 1548 1552 1554 1558 1561 1563 1565 1567 1569 1571 1573 1576 1577 1578 1579 1580 1581 1581 1581 1582 1583 1584 1584 1585 1585 1585 1587 1587 1587 1587
1481 1486 1491 1496 1503 1510 1517 1524 1529 1533 1537 1540 1544 1547 1550 1553 1556 1559 1561 1563 1564 1566 1568 1571 1573 1575 1576 1577 1578 1578 1578 1579 1580 1580 1581 1582 1582 1582 1583 1584 1585 1585 1585
1482 1486 1485 1490 1499 1507 1514 1519 1525 1527 1533 1538 1542 1546 1548 1551 1554 1556 1559 1562 1563 1564 1566 1568 1570 1572 1573 1575 1576 1576 1575 1576 1575 1576 1577 1578 1579 1579 1580 1580 1580 1581 1581
1479 1475 1473 1475 1491 1501 1510 1518 1522 1525 1531 1537 1542 1544 1546 1548 1551 1553 1556 1558 1560 1562 1564 1566 1569 1570 1572 1574 1575 1575 1573 1574 1573 1573 1574 1575 1576 1576 1576 1576 1577 1577 1578
1476 1479 1481 1480 1486 1499 1506 1510 1517 1525 1530 1535 1537 1540 1542 1545 1549 1552 1554 1556 1557 1559 1560 1562 1566 1568 1570 1572 1573 1574 1572 1572 1571 1570 1571 1571 1572 1572 1573 1573 1573 1574 1574
1472 1480 1484 1482 1486 1493 1502 1511 1515 1519 1525 1530 1535 1536 1540 1543 1545 1549 1551 1553 1554 1554 1555 1559 1562 1565 1568 1568 1568 1568 1569 1569 1570 1569 1567 1567 1568 1568 1568 1569 1570 1570 1570
1471 1480 1485 1487 1483 1473 1494 1503 1509 1515 1522 1527 1529 1534 1537 1538 1540 1544 1547 1549 1550 1553 1556 1557 1557 1561 1563 1562 1562 1563 1561 1564 1564 1564 1561 1563 1563 1564 1565 1565 1565 1565 1565
1470 1478 1482 1487 1487 1490 1496 1499 1503 1513 1518 1519 1525 1529 1533 1533 1537 1540 1543 1542 1543 1547 1548 1551 1555 1556 1557 1559 1558 1559 1559 1560 1561 1561 1562 1561 1560 1560 1560 1560 1560 1561 1561